• In Belarus
  • List of Countries
  • For 7 days
  • Water Temperature
  • Satellite Maps
  • Weather Map
  • Weather Widgets
  • user-avatar
    Login

    Hourly Weather Bugojno

    Today, 21 November, Tuesday

    Time Temperature Precipitation Wind Pressure Humidity
    00:00 +2°C° 0 mm 1 mps 713 mmHg 67%
    01:00 +2°C° 0 mm 1 mps 712 mmHg 64%
    02:00 +2°C° 0 mm 1 mps 712 mmHg 64%
    03:00 +2°C° 0 mm 1 mps 712 mmHg 63%
    04:00 +1°C° 0 mm 2 mps 712 mmHg 63%
    05:00 +1°C° 0 mm 2 mps 712 mmHg 63%
    06:00 +1°C° 0 mm 2 mps 712 mmHg 63%
    07:00 +1°C° 0 mm 2 mps 712 mmHg 63%
    08:00 +3°C° 0 mm 2 mps 712 mmHg 60%
    09:00 +5°C° 0 mm 2 mps 712 mmHg 56%
    10:00 +7°C° 0 mm 2 mps 712 mmHg 53%
    11:00 +8°C° 0 mm 2 mps 712 mmHg 54%
    12:00 +9°C° 0 mm 2 mps 713 mmHg 55%
    13:00 +10°C° 0 mm 2 mps 713 mmHg 55%
    14:00 +8°C° 0 mm 2 mps 712 mmHg 62%
    15:00 +7°C° 0 mm 2 mps 712 mmHg 68%
    16:00 +7°C° 0 mm 1 mps 712 mmHg 75%
    17:00 +6°C° 0 mm 1 mps 712 mmHg 78%
    18:00 +5°C° 0 mm 1 mps 712 mmHg 82%
    19:00 +3°C° 0 mm 2 mps 712 mmHg 86%
    20:00 +3°C° 0 mm 2 mps 712 mmHg 87%
    21:00 +3°C° 0 mm 2 mps 713 mmHg 87%
    22:00 +3°C° 0 mm 2 mps 713 mmHg 88%
    23:00 +3°C° 0 mm 2 mps 713 mmHg 89%

    Tomorrow, 22 November, Wednesday

    Time Temperature Precipitation Wind Pressure Humidity
    00:00 +3°C° 0 mm 2 mps 713 mmHg 89%
    01:00 +3°C° 0 mm 2 mps 713 mmHg 89%
    02:00 +3°C° 0 mm 2 mps 713 mmHg 90%
    03:00 +3°C° 0 mm 2 mps 713 mmHg 90%
    04:00 +3°C° 0 mm 2 mps 713 mmHg 91%
    05:00 +3°C° 0 mm 2 mps 713 mmHg 91%
    06:00 +3°C° 0 mm 2 mps 713 mmHg 91%
    07:00 +3°C° 0 mm 2 mps 713 mmHg 91%
    08:00 +5°C° 0 mm 2 mps 713 mmHg 86%
    09:00 +7°C° 0 mm 2 mps 713 mmHg 80%
    10:00 +9°C° 0 mm 2 mps 714 mmHg 75%
    11:00 +10°C° 0 mm 2 mps 714 mmHg 72%
    12:00 +12°C° 0 mm 2 mps 714 mmHg 70%
    13:00 +13°C° 0 mm 2 mps 713 mmHg 68%
    14:00 +10°C° 0 mm 2 mps 713 mmHg 74%
    15:00 +10°C° 0 mm 1 mps 713 mmHg 80%
    16:00 +9°C° 0 mm 1 mps 713 mmHg 86%
    17:00 +8°C° 0 mm 1 mps 713 mmHg 88%
    18:00 +7°C° 0 mm 1 mps 713 mmHg 90%
    19:00 +5°C° 0 mm 2 mps 713 mmHg 92%
    20:00 +5°C° 0 mm 2 mps 713 mmHg 91%
    21:00 +5°C° 0 mm 2 mps 713 mmHg 90%
    22:00 +4°C° 0 mm 2 mps 713 mmHg 89%
    23:00 +4°C° 0 mm 2 mps 713 mmHg 88%

    Day after tomorrow, 23 November, Thursday

    Time Temperature Precipitation Wind Pressure Humidity
    00:00 +4°C° 0 mm 2 mps 713 mmHg 88%
    01:00 +4°C° 0 mm 2 mps 713 mmHg 87%
    02:00 +4°C° 0 mm 2 mps 713 mmHg 87%
    03:00 +4°C° 0 mm 2 mps 713 mmHg 87%
    04:00 +4°C° 0 mm 2 mps 713 mmHg 88%
    05:00 +4°C° 0 mm 2 mps 713 mmHg 88%
    06:00 +4°C° 0 mm 2 mps 713 mmHg 88%
    07:00 +4°C° 0 mm 2 mps 713 mmHg 89%
    08:00 +6°C° 0 mm 2 mps 714 mmHg 83%
    09:00 +8°C° 0 mm 2 mps 714 mmHg 78%
    10:00 +11°C° 0 mm 1 mps 714 mmHg 73%
    11:00 +12°C° 0 mm 1 mps 714 mmHg 71%
    12:00 +12°C° 0 mm 1 mps 714 mmHg 69%
    13:00 +13°C° 0 mm 1 mps 714 mmHg 68%
    14:00 +12°C° 0 mm 1 mps 714 mmHg 73%
    15:00 +11°C° 0 mm 1 mps 714 mmHg 79%
    16:00 +9°C° 0 mm 1 mps 714 mmHg 85%
    17:00 +9°C° 0 mm 1 mps 714 mmHg 87%
    18:00 +8°C° 0 mm 1 mps 714 mmHg 89%
    19:00 +7°C° 0 mm 1 mps 715 mmHg 91%
    20:00 +7°C° 0 mm 1 mps 715 mmHg 91%
    21:00 +6°C° 0 mm 1 mps 715 mmHg 91%
    22:00 +6°C° 0 mm 1 mps 715 mmHg 91%
    23:00 +6°C° 0 mm 1 mps 715 mmHg 90%

    24 November, Friday

    Time Temperature Precipitation Wind Pressure Humidity
    00:00 +6°C° 0 mm 1 mps 715 mmHg 89%
    01:00 +6°C° 0 mm 1 mps 715 mmHg 89%
    02:00 +6°C° 0 mm 1 mps 715 mmHg 88%
    03:00 +6°C° 0 mm 1 mps 715 mmHg 88%
    04:00 +5°C° 0 mm 1 mps 715 mmHg 87%
    05:00 +5°C° 0 mm 1 mps 715 mmHg 86%
    06:00 +5°C° 0 mm 1 mps 715 mmHg 85%
    07:00 +5°C° 0 mm 1 mps 715 mmHg 85%
    08:00 +7°C° 0 mm 1 mps 716 mmHg 78%
    09:00 +9°C° 0 mm 1 mps 716 mmHg 71%
    10:00 +11°C° 0 mm 0 mps 716 mmHg 65%
    11:00 +11°C° 0 mm 0 mps 716 mmHg 63%
    12:00 +12°C° 0 mm 0 mps 716 mmHg 61%
    13:00 +14°C° 0 mm 1 mps 716 mmHg 59%
    14:00 +11°C° 0 mm 0 mps 716 mmHg 65%
    15:00 +10°C° 0 mm 0 mps 715 mmHg 72%
    16:00 +9°C° 0 mm 0 mps 715 mmHg 79%
    17:00 +8°C° 0 mm 0 mps 715 mmHg 81%
    18:00 +8°C° 0 mm 1 mps 715 mmHg 84%
    19:00 +7°C° 0 mm 1 mps 715 mmHg 86%
    20:00 +7°C° 0 mm 1 mps 716 mmHg 87%
    21:00 +7°C° 0 mm 1 mps 716 mmHg 87%
    22:00 +7°C° 0 mm 1 mps 716 mmHg 87%
    23:00 +6°C° 0 mm 1 mps 716 mmHg 87%

    25 November, Saturday

    Time Temperature Precipitation Wind Pressure Humidity
    00:00 +6°C° 0 mm 1 mps 716 mmHg 88%
    01:00 +6°C° 0 mm 1 mps 716 mmHg 88%
    02:00 +6°C° 0 mm 1 mps 716 mmHg 88%
    03:00 +6°C° 0 mm 1 mps 716 mmHg 88%
    04:00 +6°C° 0 mm 1 mps 715 mmHg 88%
    05:00 +6°C° 0 mm 1 mps 715 mmHg 88%
    06:00 +5°C° 0 mm 1 mps 715 mmHg 88%
    07:00 +5°C° 0 mm 1 mps 715 mmHg 87%
    08:00 +7°C° 0 mm 1 mps 716 mmHg 81%
    09:00 +9°C° 0 mm 1 mps 716 mmHg 75%
    10:00 +11°C° 0 mm 1 mps 716 mmHg 69%
    11:00 +12°C° 0 mm 1 mps 716 mmHg 68%
    12:00 +13°C° 0 mm 1 mps 716 mmHg 66%
    13:00 +14°C° 0 mm 1 mps 716 mmHg 64%
    14:00 +13°C° 0 mm 1 mps 716 mmHg 71%
    15:00 +11°C° 0 mm 1 mps 715 mmHg 78%
    16:00 +10°C° 0 mm 1 mps 715 mmHg 84%
    17:00 +9°C° 0 mm 1 mps 715 mmHg 87%
    18:00 +8°C° 0 mm 2 mps 715 mmHg 90%
    19:00 +7°C° 0 mm 2 mps 715 mmHg 93%
    20:00 +7°C° 0 mm 2 mps 715 mmHg 93%
    21:00 +6°C° 0 mm 2 mps 715 mmHg 93%
    22:00 +6°C° 0 mm 2 mps 715 mmHg 93%
    23:00 +6°C° 0 mm 2 mps 716 mmHg 92%

    26 November, Sunday

    Time Temperature Precipitation Wind Pressure Humidity
    00:00 +6°C° 0 mm 2 mps 716 mmHg 91%
    01:00 +6°C° 0 mm 2 mps 716 mmHg 90%
    02:00 +6°C° 0 mm 2 mps 716 mmHg 89%
    03:00 +6°C° 0 mm 2 mps 716 mmHg 88%
    04:00 +6°C° 0 mm 2 mps 716 mmHg 87%
    05:00 +6°C° 0 mm 1 mps 716 mmHg 86%
    06:00 +6°C° 0 mm 1 mps 716 mmHg 86%
    07:00 +6°C° 0 mm 1 mps 716 mmHg 85%
    08:00 +8°C° 0 mm 1 mps 716 mmHg 80%
    09:00 +10°C° 0 mm 1 mps 717 mmHg 75%
    10:00 +12°C° 0 mm 1 mps 717 mmHg 70%
    11:00 +12°C° 0 mm 1 mps 717 mmHg 69%
    12:00 +13°C° 0 mm 1 mps 717 mmHg 68%
    13:00 +13°C° 0 mm 1 mps 716 mmHg 67%
    14:00 +12°C° 0 mm 1 mps 716 mmHg 73%
    15:00 +11°C° 0 mm 1 mps 716 mmHg 78%
    16:00 +10°C° 0 mm 1 mps 716 mmHg 84%
    17:00 +10°C° 0 mm 1 mps 716 mmHg 86%
    18:00 +9°C° 0 mm 1 mps 717 mmHg 89%
    19:00 +9°C° 0 mm 1 mps 717 mmHg 91%
    20:00 +7°C° 0.8 mm 2 mps 718 mmHg 92%
    21:00 +6°C° 0.8 mm 2 mps 719 mmHg 92%
    22:00 +4°C° 0.8 mm 3 mps 719 mmHg 93%
    23:00 +4°C° 0.2 mm 3 mps 720 mmHg 92%
    Show more